Погода в Вязьме

Погода в Вязьме : погода сейчас, прогноз погоды и архив. Всё, что Вы хотите узнать о погоде в Вязьме!

Поиск расширенной информации на нашем сайте:

Другие новости

Новости СМИ2

Главная страница сайта

Новости сайта

03.07.2017

Напоминаем, что на нашем специализированном сайте Метеоцентр.Азия вы можете получить высокодетализированные автоматические прогнозы погоды по пунктам России, СНГ и мира в авиационном формате (включающие направление и скорость ветра, видимость, явления погоды, количество и форму облачности, нижнюю и верхнюю границу облачности).


Погода в Вязьме - сегодня

Время (UTC), дата Ветер
(°,м/с) 
Видим.   Явления Облачность Т
(°С)
Тd
(°С)
f(%) Тe
(°С)
Pmin
(гПа)
dP
(гПа)
Po
(мм)
O2
(г/м3)
Тmin Tmax R s Состояние
почвы
09 15.06.18 110 (В) 4{11}  10 км    6/0 средняя, верхняя 
[Ac trans|Cc]
+16.5 +4.2 44 +17  1018  0.5  742  281           
12 15.06.18 130 (ЮВ) 10 км    8/0 средняя, верхняя 
[Ac trans|Cc]
+17.2 +4.3 42 +17  1018.2  0.2  742  281           
15 15.06.18 110 (В) 10 км    4/0 средняя, верхняя 
[Ac trans|Cc]
+18.9 +4.5 39 +19  1017.2  -0.8  741  279           
21 15.06.18 080 (В) 10 км    4/0 средняя, верхняя 
[Ac trans|Ci fib]
+10.7 +5.6 71 +11  1018.9  0.6  742  287           
00 16.06.18 110 (В) 10 км    6/0 средняя, верхняя 
[Ac trans|Ci fib]
+10.7 +4.5 65 +11  1019.5  0.6  742  287           
06 16.06.18 120 (ЮВ) 4000 м  слаб. дождь  10/0 средняя 
[As op]
+12.4 +6.6 68 +12  1020.8  0.8  743  285  +10.2    0.0    влажная 
09 16.06.18 110 (В) 10 км  {дождь}  10/0 средняя 
[Ac und]
+15.4 +6.7 56 +16  1020.8  0.8  744  283           
15 16.06.18 150 (ЮВ) 10 км    6/0 верхняя 
[Ci fib]
+19.3 +7.4 46 +20  1018.8  -0.8  743  278      0.0     
21 16.06.18 100 (В) 10 км    10/0 средняя 
[Ac und]
+16.1 +8.4 60 +17  1019.3  0.2  743  281           
00 17.06.18 110 (В) 10 км    9/0 средняя 
[Ac trans]
+15.4 +8 61 +16  1019.6  0.3  743  282           
03 17.06.18 тихо ()   10 км    9/6 700 м средняя 
[Sc|Ac trans]
+14.4 +8.4 67 +14  1020.3  0.5  743  283  +14.3         
06 17.06.18 120 (ЮВ) 10 км    9/4 600 м средняя 
[Sc|Ac trans]
+16.5 +9.2 62 +17  1019.9  -0.1  743  281  +14.3        сухая 
09 17.06.18 140 (ЮВ) 10 км    3/1 1000 м средняя 
[Cu hum|Ac trans]
+22.1 +7.6 39 +22  1019  -0.4  743  276           
12 17.06.18 130 (ЮВ) 10 км    3/1 1500 м средняя, верхняя 
[Cu hum|Ac trans|Ci fib]
+23.7 +8 37 +24  1017.7  -1.1  742  274           
15 17.06.18 170 (Ю) 10 км    3/0 верхняя 
[Ci fib]
+24 +8.4 37 +24  1016.6  -1  741  273           
21 17.06.18 тихо ()   4000 м  дымка  ясно 
+11.3 +10.2 93 +13  1018.2  0.4  741  285           
09 18.06.18 210 (ЮЗ) 10 км    1/0 верхняя 
[Ci fib]
+24.9 +9.7 38 +26  1015.9  -0.3  741  272           
12 18.06.18 180 (Ю) 10 км    3/1 1500 м верхняя 
[Cu hum|Cc]
+25.7 +10.2 38 +27  1015  -0.8  740  271           
15 18.06.18 260 (З) 10 км    6/3 1000 м кучево-дожд., верхняя 
[Cb cap|Cc]
+22.6 +14.8 61 +31  1014.6  -0.6  740  272           
21 18.06.18 190 (Ю) 4000 м  дымка  6/0 средняя, верхняя 
[Ac trans|Ci fib]
+16.7 +15.6 93 +28  1015  0.2  740  277           
06 19.06.18 260 (З) 10 км    3/1 1000 м верхняя 
[Cu hum|Cc]
+22.5 +15.6 65 +33  1014.1  0.1  739  272  +15.5        сухая 
09 19.06.18 240 (ЮЗ) 10 км    6/4 1000 м верхняя 
[Cu med, cong|Cc]
+26 +13.4 46 +32  1012.9  -0.9  739  269           
12 19.06.18 260 (З) 10 км    6/4 1000 м верхняя 
[Cu med, cong|Cc]
+25.9 +12.3 43 +31  1011.7  -1.2  738  269           
21 19.06.18 230 (ЮЗ) 4000 м  дымка  3/0 средняя 
[Ac trans]
+16.2 +14.8 91 +26  1010.5  -0.5  736  277           
06 20.06.18 280 (З) 10 км    1/1 600 м 
[Cu hum]
+17.3 +8.7 57 +18  1013.1  0.1  738  278  +13.2    0.3    сухая 
Время (UTC), дата Ветер
(°,м/с) 
Видим.   Явления Облачность Т
(°С)
Тd
(°С)
f(%) Тe
(°С)
Pmin
(гПа)
dP
(гПа)
Po
(мм)
O2
(г/м3)
Тmin Tmax R s Состояние
почвы

Для получения пояснительной информации подведите курсор к названию столбца.

ПОГОДА в Вязьме - архив

Всё, что Вы хотите узнать о погоде в Вязьме - удобно и подробно!

Выберите нужную дату (начиная с 1 января 2015* года) и нажмите кнопку "Найти".
Будут отображены архивные сводки погоды по пункту Вязьма, начиная с указанной даты.


Отображать данные в формате CSV (для использования в таблицах Excel)


Внимание! Наш архив погоды предназначен исключительно для личного некоммерческого использования в познавательных целях. Если Вам необходимы официальные справки о состоянии погоды (для производственных, юридических, коммерческих и т.п. целей), обращайтесь в органы Росгидромета.

*Примечание: данная дата относится к архиву по метеостанциям СССР (Россия, СНГ, Балтия).
Архив по метеостанциям Зарубежной Европы и Азии (кроме Китая) хранится 10 дней, по другим регионам земного шара (Китай, Африка, Америка, Австралия, Океания) - 1 день.

Вязьма - район местоположения метеостанции


Название, широта, долгота, высота метеостанции:
Вязьма 55.2°ш. 34.4°д. 251 м над ур. моря [Российская Федерация]

Дополнительная информация

В oтличие oт бoльшинства пoгoдных сайтoв мы публикуем пoдрoбную метеoинфoрмацию в детальнoм прoфессиoнальнoм фoрмате.

Характеристики температуры и влажнoсти вoздуха измеряются на высoте 2 м в тени вдали oт зданий и деревьев.
Скoрoсть ветра измеряется на высoте 10 м (на урoвне рoста челoвека скoрoсть ветра ниже в 1.5-2 раза). Если метеoстанция нахoдится в гoрoде или в лесу, тo скoрoсть ветра занижена на 2-4 м/с пo сравнению с oткрытым местoм. Скoрoсть ветра над акватoриями крупных рек и oзёр, а также на вершинах хoлмoв на 2-5 м/с выше, чем в oбычных услoвиях.
Атмoсфернoе давление в разных тoчках местнoсти мoжет значительнo oтличаться oт давления на метеoстанции, в зависимoсти oт услoвий рельефа (при пoдъёме на 10 м давление пoнижается примернo на 1 мм рт.ст.).